User: anonymous   Login
Location: Unspecified
(0.0000°N, 0.0000°E)
Time: 05:25:03
(UTC+00:00)
Language:

CHUBUSAT 2 - Orbit

View from above orbital plane
View from above orbital plane
View from above satellite
View from above satellite

Ground track
Ground track

The orbit data is extracted from the following two-line orbital elements,

1 41338U 16012B   19083.12483833  .00000318  00000-0  18080-4 0  9995
2 41338  31.0040 334.8980 0013907 324.9281  35.0438 15.00110763169905
Epoch (UTC): 24 March 2019 02:59:46
Eccentricity: 0.0013907
inclination: 31.0040°
perigee height: 557 km
apogee height: 576 km
right ascension of ascending node: 334.8980°
argument of perigee: 324.9281°
revolutions per day: 15.00110763
mean anomaly at epoch: 35.0438°
orbit number at epoch: 16990

The dashed part of the orbit path shows where the satellite is in the earth's shadow,  

DLR